Flag for Romania Weather past 2 weeks in Bucharest, Romania

Now
50 °F

Sunny.


Feels Like: 45 °F
Forecast: 43 / 66 °F
Wind: 13 mph from East

Location: Bucharest / Imh


UV Index: 0 (Low)

Visibility: 10 mi


Pressure: 29.68 "Hg

Humidity: 88%

Dew point: 46 °F

Location of BucharestLocation

Historic Weather in Bucharest

°F

Bucharest temperature yesterday

Maximum temperature yesterday: 57 °F (at 10:00 AM)
Minimum temperature yesterday: 52 °F (at 8:00 PM)
Average temperature yesterday: 54 °F

Past Weeks' High & Low Weather Summary

 TemperatureHumidityPressure
High75 °F (Apr 4, 5:00 PM)100% (Apr 6, 8:00 AM)30.18 "Hg (Apr 6, 8:00 AM)
Low39 °F (Apr 6, 12:30 AM)24% (Apr 9, 4:00 PM)29.59 "Hg (Apr 18, 4:00 PM)
Average52 °F77%29.93 "Hg
* Reported Apr 4 6:00 AM — Apr 19 6:30 AM, Bucharest, Weather by CustomWeather, © 2014

Note: Actual official high and low records may vary slightly from our data, if they occured in-between our weather recording intervals... More about our weather records

Advertising

Historic Weather Conditions — Data for Previous 24 hours

 ConditionsComfort  
Time TempWeatherWind HumidityBarometerVisibility
6:30 AM
Apr 19
48 °FClear.10 mph94%29.65 "Hg10 mi
6:00 AM48 °FClear.10 mph94%29.65 "Hg10 mi
5:30 AM48 °FClear.12 mph100%29.65 "Hg10 mi
5:00 AM50 °FPassing clouds.12 mph94%29.62 "HgN/A
4:30 AM48 °FPassing clouds.13 mph100%29.62 "HgN/A
4:00 AM48 °FRain showers. Partly cloudy.13 mph100%29.62 "Hg2 mi
3:30 AM48 °FRain showers. Partly cloudy.12 mph100%29.62 "Hg2 mi
3:00 AM50 °FSprinkles. Passing clouds.10 mph88%29.62 "HgN/A
2:30 AM50 °FSprinkles. Passing clouds.13 mph88%29.62 "HgN/A
2:00 AM50 °FPassing clouds.12 mph88%29.62 "HgN/A
1:30 AM50 °FPassing clouds.10 mph94%29.62 "HgN/A
1:00 AM50 °FLow clouds.12 mph94%29.62 "HgN/A
12:30 AM50 °FLight rain. Passing clouds.9 mph100%29.59 "HgN/A
12:00 AM50 °FPassing clouds.9 mph100%29.59 "HgN/A
11:30 PM
Apr 18
52 °FPassing clouds.10 mph94%29.59 "HgN/A
11:00 PM52 °FPassing clouds.7 mph94%29.59 "Hg4 mi
10:30 PM52 °FPartly cloudy.9 mph94%29.59 "Hg4 mi
10:00 PM52 °FLight rain. Fog.9 mph94%29.59 "Hg2 mi
9:30 PM52 °FSprinkles. Fog.7 mph94%29.59 "Hg2 mi
9:00 PM52 °FRain showers. Fog.7 mph94%29.59 "Hg2 mi
8:30 PM52 °FSprinkles. Fog.8 mph100%29.59 "Hg2 mi
8:00 PM52 °FSprinkles. Fog.9 mph100%29.59 "Hg1 mi
7:30 PM54 °FSprinkles. Fog.8 mph94%29.59 "Hg1 mi
7:00 PM54 °FSprinkles. Fog.12 mph94%29.59 "Hg1 mi
6:30 PM54 °FSprinkles. Fog.13 mph94%29.59 "Hg1 mi
6:00 PM54 °FSprinkles. Fog.13 mph100%29.59 "Hg2 mi
5:30 PM55 °FSprinkles. Fog.14 mph94%29.59 "Hg3 mi
5:00 PM57 °FSprinkles. Fog.13 mph94%29.59 "Hg3 mi
4:30 PM57 °FSprinkles. Scattered clouds.15 mph94%29.59 "HgN/A
4:00 PM57 °FSprinkles. Fog.12 mph94%29.59 "Hg2 mi
3:30 PM57 °FSprinkles. Fog.14 mph94%29.62 "Hg3 mi
3:00 PM55 °FSprinkles. Fog.10 mph94%29.62 "Hg2 mi
2:30 PM55 °FSprinkles. Fog.10 mph94%29.65 "Hg2 mi
2:00 PM55 °FRain showers. Fog.12 mph94%29.65 "Hg2 mi
1:30 PM55 °FRain showers. Fog.13 mph88%29.65 "Hg2 mi
1:00 PM55 °FSprinkles. Fog.9 mph88%29.68 "Hg3 mi
12:30 PM55 °FSprinkles. Scattered clouds.14 mph88%29.68 "Hg5 mi
12:00 PM57 °FSprinkles. Scattered clouds.16 mph72%29.68 "HgN/A
11:30 AM57 °FSprinkles. Scattered clouds.18 mph72%29.68 "HgN/A
11:00 AM57 °FPassing clouds.18 mph72%29.71 "HgN/A
10:30 AM57 °FPassing clouds.18 mph67%29.68 "HgN/A
10:00 AM57 °FPassing clouds.20 mph67%29.68 "HgN/A
9:30 AM55 °FPassing clouds.16 mph72%29.71 "HgN/A
9:00 AM55 °FSprinkles. Passing clouds.17 mph72%29.71 "HgN/A
8:30 AM54 °FLight rain. Passing clouds.15 mph77%29.71 "HgN/A
8:00 AM54 °FSprinkles. Scattered clouds.16 mph77%29.71 "HgN/A
7:30 AM55 °FPassing clouds.16 mph72%29.71 "HgN/A
7:00 AM54 °FPassing clouds.17 mph77%29.71 "HgN/A
Weather by CustomWeather, © 2014

See weather overview